QPF
0.00 0.00 0.00 0.00 0.00 0.00 0.00 0.00 0.00 0.00 0.00 0.00 0.00 0.00 0.00 0.00 0.00 0.00 0.00 0.00 0.00 0.00 0.00 0.00 0.00 0.00 0.01 0.02 0.05 0.06 0.05 0.06 0.05 0.02 0.01 0.01 0.01 0.02 0.01 0.00 0.00 0.00 0.00
0.00 0.00 0.00 0.00 0.00 0.00 0.00 0.00 0.00 0.00 0.00 0.00 0.00 0.00 0.00 0.00 0.00 0.00 0.00 0.00 0.00 0.00 0.00 0.00 0.00 0.00 0.00 0.01 0.03 0.05 0.05 0.04 0.05 0.08 0.03 0.03 0.01 0.01 0.01 0.00 0.00 0.00 0.00
0.00 0.00 0.00 0.00 0.00 0.00 0.00 0.00 0.00 0.00 0.00 0.00 0.00 0.00 0.00 0.00 0.00 0.00 0.00 0.00 0.00 0.00 0.00 0.00 0.00 0.00 0.00 0.00 0.01 0.04 0.05 0.06 0.10 0.12 0.08 0.05 0.03 0.02 0.02 0.01 0.00 0.00 0.00
0.00 0.00 0.00 0.00 0.00 0.00 0.00 0.00 0.00 0.00 0.00 0.00 0.00 0.00 0.00 0.00 0.00 0.00 0.00 0.00 0.00 0.00 0.00 0.00 0.00 0.00 0.00 0.00 0.00 0.01 0.02 0.04 0.06 0.10 0.10 0.10 0.06 0.03 0.03 0.02 0.01 0.00 0.00
0.00 0.00 0.00 0.00 0.00 0.00 0.00 0.00 0.00 0.00 0.00 0.00 0.00 0.00 0.00 0.00 0.00 0.00 0.00 0.00 0.00 0.00 0.00 0.00 0.00 0.00 0.00 0.00 0.00 0.00 0.01 0.03 0.05 0.07 0.08 0.06 0.06 0.04 0.03 0.01 0.02 0.00 0.00
0.00 0.00 0.00 0.00 0.00 0.00 0.00 0.00 0.00 0.00 0.00 0.00 0.00 0.00 0.00 0.00 0.00 0.00 0.00 0.00 0.00 0.00 0.00 0.00 0.00 0.00 0.00 0.00 0.00 0.00 0.00 0.00 0.03 0.08 0.09 0.08 0.06 0.04 0.02 0.01 0.01 0.00 0.00
0.00 0.00 0.00 0.00 0.00 0.00 0.00 0.00 0.00 0.00 0.00 0.00 0.00 0.00 0.00 0.00 0.00 0.00 0.00 0.00 0.00 0.00 0.00 0.00 0.00 0.00 0.00 0.00 0.00 0.00 0.00 0.00 0.01 0.06 0.07 0.09 0.09 0.07 0.04 0.01 0.02 0.02 0.00
0.00 0.00 0.00 0.00 0.00 0.00 0.00 0.00 0.00 0.00 0.00 0.00 0.00 0.00 0.00 0.00 0.00 0.00 0.00 0.00 0.00 0.00 0.00 0.00 0.00 0.00 0.00 0.00 0.00 0.00 0.00 0.00 0.00 0.01 0.07 0.09 0.10 0.12 0.09 0.05 0.02 0.02 0.01
0.00 0.00 0.00 0.00 0.00 0.00 0.00 0.00 0.00 0.00 0.00 0.00 0.00 0.00 0.00 0.00 0.00 0.00 0.00 0.00 0.00 0.00 0.00 0.00 0.00 0.00 0.00 0.00 0.00 0.00 0.00 0.00 0.01 0.02 0.04 0.10 0.10 0.09 0.13 0.09 0.06 0.03 0.02
0.00 0.00 0.00 0.00 0.00 0.00 0.00 0.00 0.00 0.00 0.00 0.00 0.00 0.00 0.00 0.00 0.00 0.00 0.00 0.00 0.00 0.00 0.00 0.00 0.00 0.00 0.00 0.00 0.00 0.00 0.00 0.00 0.00 0.02 0.03 0.05 0.11 0.13 0.11 0.14 0.10 0.07 0.03
0.00 0.00 0.00 0.00 0.00 0.00 0.00 0.00 0.00 0.00 0.00 0.00 0.00 0.00 0.00 0.00 0.00 0.00 0.00 0.00 0.00 0.00 0.00 0.00 0.00 0.00 0.00 0.00 0.00 0.00 0.00 0.00 0.00 0.00 0.02 0.04 0.08 0.14 0.15 0.14 0.13 0.12 0.08
0.00 0.00 0.00 0.00 0.00 0.00 0.00 0.00 0.00 0.00 0.00 0.00 0.00 0.00 0.00 0.00 0.00 0.00 0.00 0.00 0.00 0.00 0.00 0.00 0.00 0.00 0.00 0.00 0.00 0.00 0.00 0.00 0.00 0.00 0.00 0.05 0.08 0.11 0.17 0.20 0.17 0.15 0.12
0.00 0.00 0.00 0.00 0.00 0.00 0.00 0.00 0.00 0.00 0.00 0.00 0.00 0.00 0.00 0.00 0.00 0.00 0.00 0.00 0.00 0.00 0.00 0.00 0.00 0.00 0.00 0.00 0.00 0.00 0.00 0.00 0.00 0.00 0.00 0.01 0.05 0.07 0.09 0.09 0.14 0.14 0.13
0.00 0.00 0.00 0.00 0.00 0.00 0.00 0.00 0.00 0.00 0.00 0.00 0.00 0.00 0.00 0.00 0.00 0.00 0.00 0.00 0.00 0.00 0.00 0.00 0.00 0.00 0.00 0.00 0.00 0.00 0.00 0.00 0.00 0.00 0.00 0.00 0.01 0.06 0.08 0.10 0.11 0.23 0.19
0.00 0.00 0.00 0.00 0.00 0.00 0.00 0.00 0.00 0.00 0.00 0.00 0.00 0.00 0.00 0.00 0.00 0.00 0.00 0.00 0.00 0.00 0.00 0.00 0.00 0.00 0.00 0.00 0.00 0.00 0.00 0.00 0.00 0.00 0.00 0.00 0.01 0.04 0.05 0.08 0.12 0.11 0.17
0.00 0.00 0.00 0.00 0.00 0.00 0.00 0.00 0.00 0.00 0.00 0.00 0.00 0.00 0.00 0.00 0.00 0.00 0.00 0.00 0.00 0.00 0.00 0.00 0.00 0.00 0.00 0.00 0.00 0.00 0.00 0.00 0.00 0.00 0.00 0.00 0.00 0.02 0.05 0.07 0.07 0.09 0.08
0.00 0.00 0.00 0.00 0.00 0.00 0.00 0.00 0.00 0.00 0.00 0.00 0.00 0.00 0.00 0.00 0.00 0.00 0.00 0.00 0.00 0.00 0.00 0.00 0.00 0.00 0.00 0.00 0.00 0.00 0.00 0.00 0.00 0.00 0.00 0.00 0.00 0.00 0.01 0.05 0.08 0.08 0.16
0.00 0.00 0.00 0.00 0.00 0.00 0.00 0.00 0.00 0.00 0.00 0.00 0.00 0.00 0.00 0.00 0.00 0.00 0.00 0.00 0.00 0.00 0.00 0.00 0.00 0.00 0.00 0.00 0.00 0.00 0.00 0.00 0.00 0.00 0.00 0.00 0.00 0.00 0.00 0.01 0.05 0.13 0.08
0.00 0.00 0.00 0.00 0.00 0.00 0.00 0.00 0.00 0.00 0.00 0.00 0.00 0.00 0.00 0.00 0.00 0.00 0.00 0.00 0.00 0.00 0.00 0.00 0.00 0.00 0.00 0.00 0.00 0.00 0.00 0.00 0.00 0.00 0.00 0.00 0.00 0.00 0.00 0.00 0.01 0.08 0.18
0.00 0.00 0.00 0.00 0.00 0.00 0.00 0.00 0.00 0.00 0.00 0.00 0.00 0.00 0.00 0.00 0.00 0.00 0.00 0.00 0.00 0.01 0.00 0.00 0.00 0.00 0.00 0.00 0.00 0.00 0.00 0.00 0.00 0.00 0.00 0.00 0.00 0.00 0.00 0.00 0.01 0.01 0.04
0.00 0.00 0.00 0.00 0.00 0.00 0.00 0.00 0.00 0.00 0.00 0.00 0.00 0.00 0.00 0.00 0.00 0.01 0.02 0.02 0.01 0.01 0.00 0.00 0.00 0.00 0.00 0.00 0.00 0.00 0.00 0.00 0.00 0.00 0.00 0.00 0.00 0.01 0.01 0.01 0.00 0.01 0.01
0.00 0.00 0.00 0.00 0.00 0.00 0.00 0.01 0.01 0.01 0.02 0.02 0.03 0.01 0.00 0.00 0.00 0.01 0.02 0.04 0.07 0.07 0.02 0.00 0.00 0.00 0.00 0.00 0.00 0.00 0.00 0.00 0.00 0.00 0.01 0.01 0.00 0.00 0.00 0.00 0.00 0.00 0.01
0.00 0.00 0.00 0.00 0.00 0.00 0.00 0.00 0.01 0.01 0.01 0.01 0.01 0.00 0.00 0.00 0.00 0.00 0.00 0.00 0.01 0.04 0.08 0.07 0.05 0.01 0.00 0.00 0.00 0.00 0.00 0.00 0.00 0.00 0.00 0.00 0.00 0.00 0.00 0.00 0.00 0.00 0.01
0.00 0.00 0.00 0.00 0.00 0.00 0.00 0.01 0.01 0.01 0.01 0.00 0.00 0.00 0.00 0.00 0.00 0.00 0.00 0.01 0.01 0.01 0.00 0.01 0.05 0.03 0.00 0.00 0.00 0.00 0.00 0.00 0.00 0.00 0.00 0.01 0.00 0.00 0.00 0.00 0.00 0.00 0.01
0.00 0.00 0.00 0.00 0.00 0.00 0.00 0.01 0.01 0.00 0.00 0.00 0.00 0.00 0.00 0.01 0.00 0.01 0.01 0.05 0.04 0.01 0.00 0.00 0.00 0.00 0.00 0.00 0.02 0.02 0.02 0.00 0.01 0.00 0.00 0.00 0.00 0.00 0.00 0.00 0.00 0.00 0.01
0.00 0.00 0.00 0.00 0.00 0.00 0.00 0.00 0.01 0.00 0.01 0.00 0.00 0.00 0.00 0.00 0.00 0.00 0.02 0.05 0.03 0.00 0.00 0.00 0.00 0.00 0.00 0.01 0.02 0.04 0.08 0.09 0.04 0.02 0.00 0.01 0.00 0.02 0.04 0.00 0.02 0.02 0.02
MSLP
1026.04 1025.94 1025.83 1025.54 1025.27 1024.89 1024.91 1025.30 1025.41 1024.69 1024.31 1023.88 1023.68 1023.78 1023.07 1022.88 1022.86 1022.41 1021.61 1021.65 1021.30 1020.59 1020.04 1019.73 1019.10 1018.76 1018.57 1018.14 1017.70 1017.44 1017.44 1017.58 1017.76 1017.92 1018.05 1018.16 1018.42 1018.79 1019.16 1019.45 1019.65 1019.95 1020.22
1026.14 1026.19 1026.04 1025.88 1025.65 1025.63 1025.79 1025.80 1025.20 1024.96 1025.05 1024.52 1024.24 1023.75 1023.44 1023.20 1022.87 1022.55 1022.15 1022.04 1021.66 1021.02 1020.57 1020.05 1019.23 1018.83 1018.63 1018.37 1018.03 1017.54 1017.37 1017.39 1017.55 1017.59 1017.80 1017.95 1018.12 1018.41 1018.82 1019.09 1019.39 1019.63 1019.89
1026.01 1026.12 1026.19 1026.31 1026.43 1026.32 1026.13 1025.66 1025.31 1025.35 1025.02 1024.53 1024.28 1023.72 1023.21 1023.01 1022.93 1022.84 1022.32 1022.06 1021.58 1021.34 1021.05 1020.40 1019.83 1019.12 1018.64 1018.20 1017.98 1017.76 1017.56 1017.57 1017.32 1017.33 1017.48 1017.68 1017.95 1017.97 1018.36 1018.70 1019.05 1019.30 1019.56
1026.03 1026.40 1026.52 1026.44 1026.33 1026.15 1025.94 1025.96 1026.02 1025.68 1025.36 1024.93 1024.37 1023.88 1023.55 1023.34 1023.30 1023.03 1022.65 1022.41 1021.79 1021.38 1021.33 1020.67 1020.12 1019.72 1019.17 1018.62 1018.13 1017.81 1017.64 1017.29 1017.29 1017.14 1017.07 1017.22 1017.47 1017.69 1017.97 1018.29 1018.66 1018.94 1019.17
1025.98 1026.25 1026.34 1026.40 1026.31 1026.35 1026.34 1026.26 1025.95 1025.67 1025.32 1025.09 1024.61 1024.21 1023.40 1023.35 1023.33 1023.09 1022.91 1022.28 1021.79 1021.87 1021.67 1021.28 1020.80 1020.41 1019.85 1019.34 1018.79 1018.07 1017.71 1017.46 1017.10 1017.15 1016.87 1016.58 1016.70 1017.02 1017.38 1017.79 1018.14 1018.59 1018.81
1026.15 1026.35 1026.59 1026.61 1026.57 1026.59 1026.64 1026.39 1026.01 1025.55 1025.40 1025.05 1024.73 1024.31 1023.59 1023.52 1023.48 1023.25 1022.77 1022.64 1022.34 1022.36 1022.19 1021.67 1021.39 1021.32 1020.81 1020.20 1019.70 1018.91 1018.33 1017.97 1017.60 1017.15 1016.77 1016.46 1016.17 1016.23 1016.61 1017.01 1017.42 1017.87 1018.33
1026.43 1026.43 1026.46 1026.50 1026.47 1026.37 1026.40 1026.17 1025.97 1025.76 1025.46 1025.29 1024.89 1024.22 1023.61 1023.43 1023.35 1023.29 1023.05 1022.68 1022.69 1022.77 1022.45 1022.27 1022.18 1021.87 1021.44 1020.84 1020.49 1019.70 1018.92 1018.36 1017.37 1017.06 1017.04 1016.43 1016.09 1015.69 1015.81 1016.15 1016.59 1017.02 1017.39
1026.32 1026.25 1026.42 1026.51 1026.41 1026.31 1026.40 1026.36 1026.37 1026.19 1025.98 1025.94 1025.62 1025.03 1024.60 1024.19 1023.69 1023.81 1023.42 1022.81 1022.75 1022.76 1022.94 1022.87 1022.66 1022.39 1022.03 1021.73 1021.04 1020.01 1019.25 1018.77 1017.73 1017.16 1016.62 1016.49 1015.84 1015.56 1015.00 1015.31 1015.65 1016.25 1016.61
1026.40 1026.48 1026.45 1026.53 1026.48 1026.44 1026.39 1026.30 1026.28 1026.09 1026.07 1025.88 1025.75 1025.78 1025.31 1025.09 1024.69 1023.58 1023.58 1023.74 1023.66 1023.37 1022.92 1022.85 1022.78 1022.59 1022.04 1021.74 1021.20 1020.58 1019.67 1018.64 1017.98 1017.45 1016.73 1016.46 1016.12 1015.35 1014.35 1014.38 1014.76 1015.07 1015.68
1026.58 1026.52 1026.51 1026.49 1026.54 1026.59 1026.58 1026.52 1026.21 1026.42 1026.37 1026.08 1026.13 1026.16 1026.23 1026.37 1025.88 1024.49 1023.75 1023.60 1023.31 1023.25 1023.11 1022.94 1022.79 1022.75 1022.26 1021.88 1021.50 1020.78 1019.84 1018.62 1018.22 1017.57 1017.12 1016.52 1016.05 1015.37 1014.87 1013.84 1013.76 1014.14 1014.55
1026.60 1026.46 1026.49 1026.66 1026.70 1026.61 1026.53 1026.61 1026.63 1026.65 1026.65 1026.60 1026.27 1026.17 1026.26 1026.17 1026.02 1025.84 1024.49 1023.80 1023.01 1023.06 1023.10 1022.87 1022.62 1022.49 1022.23 1022.04 1021.41 1020.70 1019.86 1018.77 1018.08 1017.59 1017.24 1016.83 1016.07 1015.59 1014.84 1014.27 1013.27 1013.11 1013.33
1026.87 1026.64 1026.45 1026.49 1026.49 1026.51 1026.51 1026.51 1026.48 1026.41 1026.41 1026.30 1026.02 1025.88 1025.98 1026.12 1025.91 1025.72 1024.80 1024.01 1023.31 1021.83 1022.14 1022.20 1022.27 1022.21 1022.06 1021.82 1021.33 1020.66 1019.97 1019.14 1018.44 1017.95 1017.26 1016.77 1016.12 1015.44 1014.97 1014.54 1013.47 1013.00 1012.15
1026.90 1026.81 1026.53 1026.27 1026.30 1026.30 1026.33 1026.37 1026.35 1026.29 1026.11 1025.88 1025.60 1025.47 1025.43 1025.45 1025.38 1025.14 1024.80 1023.98 1023.12 1022.60 1021.99 1021.30 1021.40 1021.63 1021.56 1021.48 1021.16 1020.49 1019.93 1019.41 1018.68 1018.10 1017.50 1016.58 1016.07 1015.40 1015.22 1014.41 1013.52 1012.42 1011.27
1026.69 1026.50 1026.37 1026.20 1026.00 1025.94 1026.02 1026.09 1026.05 1025.88 1025.67 1025.37 1025.27 1025.32 1025.23 1025.04 1024.92 1024.69 1024.39 1023.93 1022.79 1022.59 1022.56 1022.41 1021.81 1021.66 1021.44 1021.22 1020.78 1020.42 1019.93 1019.49 1018.67 1017.96 1017.28 1016.71 1016.09 1015.34 1014.68 1014.10 1013.10 1012.57 1011.62
1026.25 1025.96 1026.09 1026.05 1025.85 1025.68 1025.62 1025.58 1025.58 1025.42 1025.25 1025.17 1025.09 1024.99 1024.83 1024.52 1024.28 1023.98 1023.85 1023.81 1024.01 1023.47 1022.16 1021.84 1021.94 1021.33 1021.16 1020.73 1020.27 1019.85 1019.46 1018.98 1018.06 1017.38 1016.82 1016.23 1015.65 1014.82 1014.38 1014.00 1013.26 1012.63 1011.99
1026.04 1026.01 1025.86 1025.77 1025.63 1025.39 1025.18 1025.09 1024.96 1024.79 1024.72 1024.67 1024.61 1024.48 1024.25 1023.88 1023.66 1023.49 1023.38 1023.57 1023.80 1023.54 1022.12 1021.57 1020.73 1020.45 1020.30 1019.78 1019.45 1019.09 1018.70 1018.11 1017.49 1016.89 1016.08 1015.50 1015.04 1014.30 1013.67 1013.31 1012.80 1012.32 1011.05
1025.47 1025.51 1025.34 1025.26 1025.21 1025.02 1024.79 1024.59 1024.40 1024.25 1024.16 1024.01 1023.86 1023.67 1023.27 1023.08 1022.91 1022.68 1022.56 1022.77 1022.75 1022.63 1021.70 1019.15 1019.59 1019.49 1019.23 1018.94 1018.63 1018.38 1018.06 1017.54 1016.84 1016.03 1015.40 1014.68 1014.11 1013.40 1012.82 1012.29 1011.77 1011.67 1010.89
1024.78 1024.87 1024.89 1024.80 1024.64 1024.45 1024.23 1023.99 1023.80 1023.65 1023.51 1023.23 1022.88 1022.71 1022.30 1022.06 1021.81 1021.67 1021.98 1022.04 1021.75 1021.34 1021.00 1019.49 1018.61 1018.58 1018.43 1018.30 1017.95 1017.62 1017.14 1016.46 1015.85 1015.15 1014.50 1013.89 1013.19 1012.45 1011.77 1011.15 1010.86 1010.73 1010.39
1024.41 1024.33 1024.27 1024.22 1023.98 1023.72 1023.44 1023.20 1022.97 1022.73 1022.56 1022.31 1022.02 1021.78 1021.26 1021.10 1020.93 1021.04 1021.07 1020.85 1020.44 1020.03 1019.81 1019.29 1017.79 1018.04 1017.53 1017.38 1016.92 1016.57 1016.18 1015.70 1015.01 1014.24 1013.41 1012.79 1011.84 1011.01 1010.39 1010.01 1009.71 1009.22 1008.50
1024.05 1023.85 1023.72 1023.55 1023.31 1022.97 1022.62 1022.29 1022.09 1021.82 1021.48 1021.16 1020.87 1020.58 1020.22 1020.09 1020.00 1019.84 1019.73 1019.35 1019.01 1018.75 1018.49 1018.12 1017.35 1017.10 1016.82 1016.45 1016.29 1015.90 1015.13 1014.87 1014.06 1013.35 1012.68 1012.02 1011.17 1010.33 1009.61 1009.15 1008.61 1008.32 1008.14
1023.72 1023.52 1023.31 1023.08 1022.76 1022.35 1021.89 1021.55 1021.24 1020.86 1020.50 1020.01 1019.59 1019.32 1019.14 1018.91 1018.70 1018.45 1018.01 1017.43 1017.21 1016.92 1016.80 1016.62 1016.20 1016.08 1015.62 1015.47 1015.18 1014.77 1014.27 1013.68 1012.96 1012.66 1011.89 1010.99 1010.49 1009.66 1008.86 1008.47 1008.05 1007.66 1007.08
1023.37 1023.21 1023.01 1022.68 1022.27 1021.87 1021.28 1020.53 1019.90 1019.70 1019.18 1018.80 1018.40 1018.09 1017.84 1017.48 1017.06 1016.61 1016.01 1015.41 1015.21 1014.93 1015.04 1015.10 1014.55 1014.58 1013.98 1013.98 1013.94 1013.68 1013.28 1012.97 1012.10 1011.48 1010.90 1010.01 1009.93 1009.09 1008.52 1008.12 1007.67 1007.33 1006.93
1023.18 1022.98 1022.62 1022.33 1021.86 1021.28 1020.57 1019.69 1019.00 1018.52 1018.23 1017.87 1017.64 1017.21 1016.84 1016.40 1016.02 1015.71 1015.27 1014.68 1014.06 1013.62 1013.19 1013.10 1012.68 1012.68 1012.40 1012.28 1012.62 1012.48 1012.30 1011.94 1011.15 1010.74 1010.77 1009.62 1009.41 1008.55 1008.04 1007.34 1006.77 1006.24 1005.66
1022.89 1022.65 1022.24 1021.76 1021.20 1020.44 1019.68 1018.86 1018.19 1017.68 1017.39 1017.08 1016.77 1016.37 1015.94 1015.56 1015.25 1014.88 1014.25 1013.55 1012.83 1012.42 1012.14 1011.77 1011.27 1011.05 1010.85 1010.73 1010.96 1010.93 1010.85 1010.62 1010.14 1009.75 1009.86 1008.83 1008.44 1007.38 1006.98 1006.29 1005.53 1004.83 1004.09
1022.43 1022.08 1021.55 1020.93 1020.48 1019.90 1019.08 1018.22 1017.45 1017.11 1016.65 1016.24 1015.88 1015.43 1015.15 1014.78 1014.39 1013.76 1013.02 1012.45 1011.83 1011.20 1010.60 1010.00 1009.54 1009.18 1009.15 1009.10 1009.43 1009.75 1009.48 1009.55 1008.70 1008.34 1008.22 1007.83 1007.17 1006.76 1006.11 1005.01 1004.07 1003.14 1002.78
1021.68 1021.17 1020.75 1020.34 1019.81 1019.13 1018.47 1017.73 1016.84 1016.41 1016.00 1015.56 1015.13 1014.66 1014.28 1013.95 1013.27 1012.74 1012.12 1011.56 1010.70 1010.16 1009.74 1009.06 1008.32 1007.84 1007.41 1007.43 1007.48 1007.64 1007.72 1007.44 1007.41 1006.84 1006.53 1006.82 1006.39 1006.34 1005.01 1003.35 1002.78 1002.31 1001.88
Thickness
5546 5548 5551 5555 5557 5561 5561 5558 5558 5566 5571 5575 5578 5577 5586 5589 5590 5596 5606 5605 5610 5618 5624 5627 5635 5640 5643 5649 5656 5659 5660 5661 5662 5664 5667 5669 5670 5670 5670 5671 5674 5675 5675
5533 5534 5538 5540 5543 5544 5544 5544 5551 5554 5555 5561 5564 5569 5573 5576 5580 5586 5591 5594 5597 5605 5610 5616 5625 5630 5634 5639 5645 5652 5654 5655 5657 5658 5661 5663 5665 5666 5666 5666 5668 5671 5672
5521 5521 5522 5523 5524 5526 5530 5536 5539 5539 5544 5550 5555 5561 5565 5568 5570 5572 5578 5582 5588 5592 5596 5604 5611 5618 5624 5631 5636 5641 5645 5646 5651 5652 5654 5656 5657 5661 5662 5663 5663 5665 5667
5509 5508 5509 5510 5511 5514 5518 5519 5520 5525 5530 5536 5541 5547 5550 5553 5556 5559 5563 5567 5574 5579 5583 5591 5598 5603 5610 5618 5623 5629 5635 5641 5643 5646 5648 5650 5651 5653 5655 5658 5659 5660 5662
5497 5497 5498 5498 5500 5501 5503 5505 5509 5513 5517 5521 5526 5530 5537 5541 5543 5546 5550 5557 5564 5565 5567 5573 5580 5586 5594 5600 5607 5615 5622 5629 5635 5638 5642 5647 5649 5650 5651 5652 5654 5655 5656
5483 5483 5482 5482 5482 5483 5484 5488 5492 5498 5501 5506 5511 5516 5521 5524 5526 5530 5536 5539 5545 5547 5550 5557 5563 5567 5573 5581 5588 5598 5605 5612 5619 5626 5633 5640 5644 5647 5647 5649 5650 5652 5652
5468 5469 5470 5470 5470 5472 5473 5477 5479 5482 5485 5488 5492 5498 5503 5508 5510 5512 5517 5523 5525 5527 5533 5538 5541 5547 5554 5563 5568 5578 5588 5595 5607 5615 5619 5627 5635 5642 5644 5645 5646 5647 5650
5454 5454 5455 5454 5455 5456 5457 5458 5459 5460 5463 5464 5470 5476 5481 5485 5491 5490 5495 5503 5506 5508 5509 5514 5520 5526 5532 5540 5548 5560 5571 5578 5591 5600 5608 5614 5624 5630 5639 5640 5642 5641 5644
5436 5436 5436 5436 5436 5436 5437 5438 5439 5443 5443 5446 5449 5450 5456 5458 5464 5475 5476 5476 5479 5485 5491 5494 5498 5504 5513 5519 5528 5537 5548 5562 5573 5581 5591 5599 5607 5620 5632 5636 5637 5640 5640
5418 5419 5418 5418 5418 5418 5418 5418 5420 5421 5422 5425 5425 5427 5428 5428 5435 5450 5455 5455 5460 5464 5468 5472 5477 5480 5488 5496 5504 5515 5526 5541 5551 5562 5571 5581 5593 5602 5613 5625 5632 5634 5636
5401 5401 5400 5399 5399 5400 5401 5400 5399 5399 5401 5401 5404 5405 5404 5407 5409 5416 5431 5437 5440 5441 5444 5449 5454 5458 5463 5470 5481 5493 5503 5517 5532 5543 5553 5561 5573 5583 5596 5606 5620 5628 5632
5381 5382 5382 5382 5381 5380 5381 5381 5381 5381 5381 5381 5383 5384 5385 5383 5385 5388 5400 5409 5420 5430 5426 5429 5430 5433 5439 5444 5454 5466 5479 5492 5506 5518 5531 5542 5554 5565 5577 5588 5605 5614 5627
5361 5361 5362 5363 5363 5362 5361 5360 5360 5361 5362 5363 5364 5364 5365 5364 5365 5367 5372 5381 5391 5399 5406 5411 5408 5409 5413 5417 5426 5437 5452 5465 5480 5493 5505 5520 5533 5549 5557 5573 5588 5605 5621
5344 5344 5343 5343 5345 5344 5343 5342 5341 5341 5342 5344 5343 5341 5341 5341 5343 5344 5347 5351 5363 5367 5369 5371 5375 5375 5376 5382 5392 5403 5421 5435 5453 5467 5480 5495 5511 5526 5541 5555 5573 5586 5603
5326 5327 5326 5325 5326 5326 5325 5325 5323 5322 5323 5321 5320 5319 5318 5317 5319 5321 5320 5318 5315 5326 5341 5339 5333 5337 5337 5343 5354 5366 5384 5401 5422 5441 5458 5471 5487 5504 5519 5533 5550 5565 5579
5309 5307 5307 5307 5306 5307 5308 5307 5307 5306 5305 5302 5300 5299 5298 5297 5296 5293 5289 5284 5278 5279 5298 5300 5300 5300 5298 5305 5315 5322 5341 5361 5385 5406 5427 5446 5462 5481 5498 5514 5531 5547 5568
5294 5292 5291 5290 5289 5289 5290 5290 5289 5288 5288 5285 5282 5282 5279 5276 5274 5269 5264 5256 5252 5246 5250 5290 5275 5273 5275 5278 5282 5286 5297 5315 5342 5367 5390 5415 5435 5456 5477 5496 5515 5529 5549
5281 5278 5275 5274 5273 5273 5273 5273 5273 5271 5270 5267 5265 5263 5260 5257 5253 5248 5241 5237 5235 5233 5231 5249 5262 5256 5257 5257 5263 5267 5274 5285 5303 5329 5353 5379 5405 5430 5455 5477 5494 5510 5529
5264 5262 5260 5259 5258 5258 5258 5257 5258 5255 5253 5250 5246 5244 5242 5239 5239 5233 5228 5229 5228 5226 5222 5222 5240 5229 5233 5236 5244 5251 5259 5269 5279 5298 5319 5346 5377 5404 5429 5455 5475 5498 5519
5247 5248 5246 5245 5244 5244 5244 5243 5242 5239 5237 5235 5231 5230 5231 5230 5228 5226 5224 5225 5223 5220 5216 5214 5218 5214 5215 5218 5221 5233 5243 5251 5266 5278 5294 5317 5346 5376 5403 5428 5457 5477 5494
5233 5232 5231 5230 5229 5229 5229 5226 5223 5222 5220 5220 5221 5223 5223 5222 5223 5222 5223 5226 5222 5218 5213 5208 5209 5203 5207 5205 5207 5213 5227 5239 5254 5266 5278 5297 5317 5346 5376 5402 5431 5456 5481
5218 5216 5215 5214 5212 5211 5210 5211 5211 5209 5211 5214 5216 5217 5219 5221 5223 5224 5225 5227 5223 5218 5212 5206 5206 5201 5205 5200 5199 5201 5212 5224 5243 5255 5266 5287 5298 5324 5354 5380 5406 5430 5453
5200 5199 5197 5196 5193 5192 5194 5196 5198 5202 5205 5206 5207 5210 5214 5217 5217 5216 5216 5217 5218 5216 5214 5208 5209 5205 5203 5201 5196 5198 5202 5213 5233 5245 5249 5276 5284 5307 5329 5356 5383 5409 5435
5182 5180 5179 5179 5178 5179 5183 5186 5190 5195 5198 5199 5201 5204 5208 5210 5209 5209 5211 5213 5214 5212 5208 5205 5206 5206 5204 5202 5197 5196 5198 5207 5221 5236 5241 5263 5278 5299 5314 5338 5364 5395 5424
5167 5165 5166 5166 5166 5167 5173 5178 5183 5186 5190 5193 5196 5199 5202 5204 5203 5206 5208 5209 5210 5211 5210 5208 5208 5209 5207 5205 5198 5193 5199 5200 5218 5231 5238 5255 5276 5287 5296 5324 5354 5383 5412
5156 5156 5155 5156 5158 5161 5165 5170 5177 5180 5184 5187 5189 5193 5196 5198 5200 5202 5203 5204 5207 5208 5206 5208 5209 5209 5211 5208 5204 5199 5200 5205 5211 5226 5239 5247 5261 5268 5292 5317 5341 5368 5396